www.pogodaiklimat.ru
ПОГОДА в Машикудуке

Архив погоды в Машикудуке (Навоийская область, Узбекистан)

Время
и дата
16:30 27.05
16:50 27.05
17:00 27.05
17:10 27.05
17:20 27.05
17:40 27.05
17:50 27.05
18:10 27.05
18:20 27.05
18:40 27.05
19:20 27.05
19:50 27.05
20:00 27.05
20:20 27.05
20:40 27.05
21:20 27.05
21:30 27.05
21:40 27.05
22:10 27.05
22:20 27.05
22:40 27.05
23:10 27.05
23:20 27.05
00:00 28.05
00:10 28.05
00:30 28.05
00:40 28.05
00:50 28.05
01:10 28.05
01:40 28.05
02:00 28.05
02:10 28.05
02:50 28.05
03:10 28.05
03:20 28.05
04:00 28.05
04:30 28.05
05:00 28.05
05:20 28.05
05:30 28.05
06:00 28.05
06:30 28.05
06:40 28.05
07:00 28.05
07:20 28.05
07:30 28.05
07:50 28.05
08:00 28.05
08:30 28.05
09:00 28.05
09:10 28.05
09:20 28.05
10:00 28.05
10:10 28.05
10:30 28.05
10:40 28.05
10:50 28.05
11:10 28.05
11:20 28.05
11:30 28.05
11:40 28.05
11:50 28.05
12:10 28.05
12:20 28.05
12:30 28.05
13:00 28.05
13:10 28.05
13:20 28.05
13:30 28.05
13:50 28.05
14:00 28.05
14:20 28.05
14:30 28.05
14:40 28.05
14:50 28.05
15:00 28.05
15:10 28.05
15:30 28.05
15:40 28.05
16:00 28.05
16:20 28.05
16:30 28.05
16:40 28.05
16:50 28.05
17:00 28.05
17:10 28.05
17:40 28.05
17:50 28.05
18:00 28.05
18:20 28.05
18:30 28.05
18:40 28.05
18:50 28.05
19:00 28.05
19:10 28.05
19:20 28.05
19:50 28.05
20:10 28.05
20:20 28.05
20:30 28.05
20:40 28.05
20:50 28.05
21:00 28.05
21:30 28.05
21:40 28.05
21:50 28.05
22:10 28.05
22:20 28.05
22:30 28.05
22:40 28.05
22:50 28.05
23:00 28.05
23:10 28.05
23:20 28.05
23:30 28.05
23:50 28.05
00:10 29.05
00:20 29.05
00:30 29.05
00:40 29.05
01:20 29.05
01:30 29.05
01:40 29.05
01:50 29.05
02:10 29.05
02:30 29.05
03:00 29.05
03:10 29.05
03:30 29.05
03:50 29.05
04:00 29.05
04:10 29.05
04:20 29.05
04:30 29.05
04:40 29.05
05:10 29.05
05:30 29.05
05:40 29.05
05:50 29.05
06:00 29.05
06:20 29.05
06:30 29.05
06:40 29.05
07:00 29.05
Ветер
(напр.,м/с)
Видимость Явления Солнечная радиация
(Вт/м2)
Т
(С)
Тd
(С)
f
(%)
Тe
(С)
Тes
(С)
Комфортность P
(гПа)
Po
(гПа)
Тmin
(С)
Tmax
(С)
R
(мм)
В 7.4
{11.1}
+29.9 +1.8 17 +28 +28 жарко 1011.4 988.1 +30.3 +29.9
В 7.3
{10.0}
+30.0 +1.7 16 +27 +27 жарко 1011.4 988.1 +30.1 +29.7
В 7.1
{9.4}
+29.8 +1.8 17 +27 +27 жарко 1011.5 988.2 +30.0 +29.7
В 6.9
{9.7}
+29.4 +1.6 17 +27 +27 жарко 1011.5 988.2 +29.8 +29.4
В 6.5
{9.1}
+29.9 +1.9 17 +28 +28 жарко 1011.5 988.2 +29.9 +29.4
В 6.3
{8.3}
+29.5 +1.6 17 +27 +27 жарко 1011.5 988.2 +29.5 +29.2
В 6.2
{8.8}
+29.8 +1.8 17 +27 +27 жарко 1011.5 988.2 +29.8 +29.5
В 6.1
{8.1}
+29.3 +2.0 17 +27 +27 жарко 1011.4 988.1 +29.6 +29.2
В 6.4
{8.4}
+28.8 +1.8 18 +27 +27 жарко 1011.5 988.2 +29.3 +28.8
В 5.4
{7.8}
+28.7 +2.7 19 +27 +27 жарко 1011.5 988.2 +28.8 +28.7
В 5.1
{7.2}
+27.6 +3.1 21 +26 +26 жарко 1011.8 988.5 +27.9 +27.6
В 3.6
{5.3}
+26.1 +3.5 23 +25 +25 комфорт 1012.1 988.8 +26.7 +26.1
В 3.1
{3.8}
+25.3 +3.7 25 +24 +24 комфорт 1012.1 988.8 +26.1 +25.3
СВ 3.1
{3.7}
+24.0 +4.1 27 +24 +24 комфорт 1012.2 988.9 +24.6 +24.0
СВ 3.0
{4.0}
+23.4 +4.2 29 +23 +23 комфорт 1012.3 989.0 +23.8 +23.4
СВ 3.1
{4.1}
+21.8 +4.3 32 +22 +22 комфорт 1012.6 989.3 +21.8 +21.7
СВ 3.9
{4.4}
+21.4 +4.4 33 +22 +22 комфорт 1012.7 989.4 +21.8 +21.4
СВ 3.5
{4.4}
+21.2 +4.3 33 +21 +21 комфорт 1012.7 989.4 +21.4 +21.2
СВ 3.7
{4.4}
+21.2 +4.3 33 +21 +21 комфорт 1012.7 989.4 +21.4 +21.0
СВ 3.9
{5.0}
+21.3 +3.8 32 +22 +22 комфорт 1012.8 989.5 +21.3 +21.0
СВ 3.4
{5.0}
+21.5 +4.1 32 +22 +22 комфорт 1012.8 989.5 +21.7 +21.5
В 1.6
{2.8}
+19.4 +5.2 39 +21 +21 комфорт 1012.9 989.6 +20.4 +19.4
СВ 2.1
{3.3}
+19.3 +4.8 38 +20 +20 1013.0 989.7 +19.4 +19.0
СВ 2.7
{4.3}
+19.3 +4.5 38 +20 +20 1012.8 989.5 +19.6 +19.3
В 2.6
{4.1}
+18.8 +4.1 38 +19 +19 1012.7 989.4 +19.3 +18.8
СВ 2.3
{3.1}
+19.3 +4.1 37 +20 +20 1012.7 989.4 +19.4 +18.9
В 3.0
{3.8}
+18.4 +4.6 40 +19 +19 1012.7 989.4 +19.3 +18.4
В 3.2
{3.8}
+17.7 +4.7 42 +18 +18 1012.5 989.2 +18.4 +17.7
СВ 2.0
{3.5}
+17.1 +4.7 44 +17 +17 1012.5 989.2 +17.3 +17.1
В 2.1
{3.3}
+17.4 +4.7 43 +18 +18 1012.5 989.2 +17.6 +17.4
СВ 2.6
{3.7}
+16.9 +4.2 43 +17 +17 1012.6 989.3 +16.9 +16.4
СВ 1.6
{3.4}
+17.6 +2.6 37 +18 +18 1012.7 989.4 +17.6 +16.9
СВ 4.7
{6.6}
+21.3 -5.7 16 +20 +20 1012.8 989.5 +21.5 +21.3
СВ 4.8
{7.1}
+20.7 -5.3 17 +20 +20 1012.8 989.5 +21.2 +20.7
СВ 3.8
{6.3}
+20.0 -4.4 19 +20 +20 1012.9 989.6 +20.7 +20.0
СВ 4.4
{6.5}
+20.2 -5.3 17 +20 +20 1013.2 989.9 +20.7 +20.2
СВ 5.1
{6.6}
+20.1 -5.4 17 +20 +20 1013.2 989.9 +20.2 +19.9
СВ 4.6
{6.4}
+19.9 -5.0 18 +20 +20 1013.4 990.1 +19.9 +19.9
В 2.8
{4.5}
+18.8 -2.8 23 +19 +19 1013.6 990.3 +19.7 +18.8
ЮВ 2.7
{4.7}
+17.2 -3.1 25 +17 +17 1013.6 990.3 +18.8 +17.2
ЮВ 3.8
{4.9}
+17.6 -1.3 28 +17 +17 1013.9 990.6 +18.3 +17.6
ЮВ 3.9
{5.2}
+18.1 -0.7 28 +18 +18 1014.0 990.7 +18.0 +17.5
В 2.9
{4.2}
+18.3 +0.6 30 +19 +19 1014.2 990.9 +18.9 +18.1
СВ 5.4
{9.2}
+20.4 -2.2 22 +20 +20 1014.7 991.4 +20.8 +20.3
СВ 6.8
{9.2}
+22.5 -1.4 20 +21 +21 комфорт 1014.8 991.5 +22.5 +21.2
СВ 7.3
{10.3}
+23.9 -1.1 19 +23 +23 комфорт 1014.7 991.4 +23.8 +22.5
СВ 7.1
{9.9}
+24.6 +0.1 20 +23 +23 комфорт 1014.8 991.5 +24.6 +24.4
СВ 7.0
{9.8}
+25.2 +0.1 19 +24 +24 комфорт 1014.8 991.5 +25.2 +24.6
СВ 6.6
{9.1}
+25.9 +0.5 19 +24 +24 комфорт 1014.9 991.6 +25.9 +25.7
СВ 6.0
{8.4}
+26.7 +0.1 18 +25 +25 комфорт 1015.0 991.7 +26.7 +26.3
СВ 6.2
{8.0}
+26.9 +1.2 19 +25 +25 комфорт 1015.0 991.7 +27.1 +26.6
СВ 6.3
{9.5}
+27.3 +0.6 18 +25 +25 комфорт 1015.1 991.8 +27.3 +26.9
СВ 6.1
{8.8}
+29.2 +0.2 15 +27 +27 жарко 1015.1 991.8 +29.2 +28.3
СВ 6.6
{9.9}
+29.1 +0.3 15 +26 +26 жарко 1015.2 991.9 +29.3 +29.0
СВ 6.5
{9.3}
+29.8 -1.2 13 +27 +27 жарко 1015.2 991.9 +29.9 +29.4
СВ 5.5
{10.3}
+29.4 -1.5 13 +26 +26 жарко 1015.2 991.9 +29.9 +29.3
СВ 5.5
{9.5}
+30.4 -0.7 13 +27 +27 жарко 1015.3 992.0 +30.4 +29.4
СВ 5.7
{10.2}
+29.8 -0.7 14 +27 +27 жарко 1015.2 991.9 +30.8 +29.8
В 4.9
{10.8}
+30.8 -0.8 13 +28 +28 жарко 1015.1 991.8 +30.8 +29.7
СВ 5.3
{9.9}
+30.3 -1.2 13 +27 +27 жарко 1015.2 991.9 +30.8 +30.2
СВ 5.2
{11.1}
+30.7 -1.4 12 +27 +27 жарко 1015.1 991.8 +30.7 +30.1
СВ 4.5
{9.0}
+31.3 -0.7 13 +28 +28 жарко 1015.0 991.7 +31.3 +30.6
СВ 6.6
{10.1}
+30.6 -1.9 12 +27 +27 жарко 1015.0 991.7 +31.3 +30.5
С 6.4
{9.8}
+31.1 -1.3 12 +28 +28 жарко 1015.0 991.7 +31.2 +30.6
СВ 5.7
{9.6}
+30.5 -2.0 12 +27 +27 жарко 1015.1 991.8 +31.1 +30.5
СВ 4.9
{9.1}
+30.8 -1.6 12 +28 +28 жарко 1015.1 991.8 +31.7 +30.8
С 6.7
{9.4}
+31.1 -1.5 12 +28 +28 жарко 1015.0 991.7 +31.3 +30.5
С 5.1
{10.0}
+31.3 -1.3 12 +28 +28 жарко 1014.9 991.6 +31.4 +30.6
СВ 5.3
{9.5}
+31.2 -2.2 11 +28 +28 жарко 1014.9 991.6 +31.4 +30.8
СВ 4.0
{8.9}
+31.7 -1.2 12 +28 +28 жарко 1014.9 991.6 +31.6 +30.9
СВ 5.6
{9.4}
+31.7 -1.3 12 +28 +28 жарко 1014.8 991.5 +31.9 +31.1
СВ 6.1
{8.9}
+31.5 -1.8 12 +28 +28 жарко 1014.8 991.5 +32.0 +31.5
СВ 3.4
{7.7}
+31.7 -1.6 12 +28 +28 жарко 1014.8 991.5 +31.7 +31.3
СВ 6.1
{8.9}
+32.0 -1.5 11 +28 +28 жарко 1014.7 991.4 +32.3 +31.7
В 4.3
{8.4}
+32.1 -1.4 12 +29 +29 жарко 1014.7 991.4 +32.3 +32.0
СВ 5.4
{9.1}
+32.3 -1.3 11 +29 +29 жарко 1014.6 991.3 +32.4 +31.7
СВ 4.4
{9.9}
+32.5 -1.5 11 +29 +29 жарко 1014.5 991.2 +32.7 +32.1
С 5.0
{8.8}
+31.5 -1.5 12 +28 +28 жарко 1014.5 991.2 +31.6 +31.2
С 3.8
{7.8}
+31.0 -2.0 12 +28 +28 жарко 1014.5 991.2 +31.7 +31.0
СВ 5.2
{8.2}
+32.1 -1.0 12 +29 +29 жарко 1014.3 991.0 +32.0 +31.4
С 7.2
{10.5}
+31.1 -1.7 12 +28 +28 жарко 1014.4 991.1 +31.8 +31.0
С 5.6
{8.4}
+31.0 -1.9 12 +28 +28 жарко 1014.4 991.1 +31.4 +31.0
С 3.9
{7.4}
+31.1 -1.8 12 +28 +28 жарко 1014.3 991.0 +31.3 +30.9
С 5.8
{9.0}
+31.0 -0.9 13 +28 +28 жарко 1014.3 991.0 +31.2 +30.9
С 6.5
{9.9}
+31.1 -1.6 12 +28 +28 жарко 1014.2 990.9 +31.4 +31.0
С 6.4
{9.9}
+31.1 -1.1 12 +28 +28 жарко 1014.2 990.9 +31.4 +31.0
С 6.3
{10.0}
+30.8 -1.0 13 +28 +28 жарко 1014.2 990.9 +30.9 +30.6
С 5.5
{8.7}
+30.5 -1.3 13 +27 +27 жарко 1014.2 990.9 +30.9 +30.5
С 5.8
{8.5}
+30.3 -1.3 13 +27 +27 жарко 1014.2 990.9 +30.6 +30.3
СВ 5.9
{8.7}
+30.0 -1.5 13 +27 +27 жарко 1014.3 991.0 +30.1 +30.0
С 6.6
{9.1}
+29.6 -1.6 13 +27 +27 жарко 1014.3 991.0 +30.0 +29.6
СВ 5.8
{8.2}
+29.5 -1.4 13 +26 +26 жарко 1014.3 991.0 +29.6 +29.5
СВ 6.2
{8.4}
+29.3 -1.5 13 +26 +26 жарко 1014.4 991.1 +29.5 +29.3
С 5.8
{8.3}
+29.1 -1.5 14 +26 +26 жарко 1014.4 991.1 +29.3 +29.1
С 6.9
{9.5}
+28.9 -1.3 14 +26 +26 жарко 1014.5 991.2 +29.1 +28.9
С 6.3
{9.4}
+28.7 -1.5 14 +26 +26 жарко 1014.6 991.3 +28.9 +28.7
С 5.7
{9.7}
+27.9 -1.5 15 +25 +25 комфорт 1014.8 991.5 +28.1 +27.9
С 6.5
{8.6}
+27.2 -1.5 15 +25 +25 комфорт 1014.8 991.5 +27.5 +27.2
С 6.1
{8.9}
+26.8 -1.6 15 +24 +24 комфорт 1014.9 991.6 +27.2 +26.8
СВ 7.2
{11.4}
+26.5 -1.4 16 +24 +24 комфорт 1014.9 991.6 +26.8 +26.5
СВ 7.1
{10.7}
+26.2 -1.3 16 +24 +24 комфорт 1015.0 991.7 +26.5 +26.2
СВ 7.5
{10.5}
+25.9 -1.3 17 +24 +24 комфорт 1015.1 991.8 +26.2 +25.9
СВ 7.0
{10.4}
+25.5 -1.2 17 +24 +24 комфорт 1015.3 992.0 +25.9 +25.5
СВ 6.9
{9.5}
+24.8 -1.0 18 +23 +23 комфорт 1015.6 992.3 +25.0 +24.8
СВ 7.1
{10.0}
+24.6 -0.9 18 +23 +23 комфорт 1015.6 992.3 +24.8 +24.6
СВ 6.5
{9.1}
+24.4 -0.9 19 +23 +23 комфорт 1015.8 992.5 +24.6 +24.4
СВ 6.6
{9.1}
+24.0 -0.8 19 +23 +23 комфорт 1015.8 992.5 +24.2 +24.0
СВ 6.4
{8.4}
+23.7 -0.7 20 +22 +22 комфорт 1015.8 992.5 +24.0 +23.7
СВ 6.7
{9.3}
+23.6 -0.9 20 +22 +22 комфорт 1015.8 992.5 +23.7 +23.6
СВ 7.2
{10.5}
+23.4 -0.9 20 +22 +22 комфорт 1015.9 992.6 +23.6 +23.4
СВ 7.5
{10.2}
+23.2 -1.1 20 +22 +22 комфорт 1015.9 992.6 +23.4 +23.2
СВ 7.4
{10.2}
+23.0 -1.3 20 +22 +22 комфорт 1015.9 992.6 +23.2 +23.0
СВ 8.2
{11.3}
+22.9 -1.7 19 +22 +22 комфорт 1015.9 992.6 +23.0 +22.9
СВ 7.1
{10.3}
+22.5 -1.5 20 +21 +21 комфорт 1016.2 992.8 +22.9 +22.5
СВ 6.7
{9.1}
+22.3 -1.8 20 +21 +21 комфорт 1016.2 992.8 +22.5 +22.3
СВ 6.8
{9.7}
+21.9 -2.2 20 +21 +21 комфорт 1016.2 992.8 +22.1 +21.9
СВ 5.5
{7.8}
+21.2 -2.4 20 +20 +20 1016.5 993.1 +21.6 +21.2
В 4.8
{6.7}
+20.8 -2.3 21 +21 +21 комфорт 1016.6 993.2 +21.2 +20.8
В 5.0
{7.1}
+20.5 -2.4 21 +20 +20 1016.7 993.3 +20.8 +20.5
В 5.6
{8.5}
+20.4 -2.7 21 +20 +20 1016.7 993.3 +20.5 +20.4
СВ 5.9
{7.7}
+19.6 -4.8 19 +19 +19 1016.5 993.1 +19.8 +19.7
СВ 5.8
{8.2}
+19.4 -5.3 18 +19 +19 1016.5 993.1 +19.7 +19.4
СВ 5.7
{7.4}
+19.2 -5.4 18 +19 +19 1016.5 993.1 +19.4 +19.2
СВ 5.4
{7.0}
+18.9 -5.3 19 +18 +18 1016.6 993.2 +19.2 +19.0
СВ 4.5
{5.8}
+18.4 -5.1 20 +18 +18 1016.6 993.2 +18.8 +18.4
СВ 5.2
{6.9}
+18.0 -5.7 19 +18 +18 1016.5 993.1 +18.3 +18.0
СВ 5.4
{7.1}
+17.7 -6.3 19 +17 +17 1016.5 993.1 +17.9 +17.7
СВ 5.1
{6.8}
+17.6 -6.4 19 +17 +17 1016.5 993.1 +17.7 +17.5
СВ 6.1
{8.7}
+17.8 -7.1 18 +17 +17 1016.2 992.8 +17.8 +17.8
СВ 4.9
{7.0}
+17.5 -7.1 18 +17 +17 1016.4 993.0 +17.6 +17.5
СВ 5.7
{7.7}
+17.4 -7.2 18 +17 +17 1016.3 992.9 +17.5 +17.4
СВ 5.8
{7.4}
+17.3 -7.1 18 +17 +17 1016.3 992.9 +17.5 +17.3
СВ 5.9
{7.9}
+17.2 -7.2 18 +16 +16 1016.2 992.8 +17.3 +17.2
СВ 6.2
{8.7}
+17.2 -7.2 18 +16 +16 1016.2 992.8 +17.3 +17.2
СВ 6.0
{8.1}
+17.1 -7.2 18 +16 +16 1016.0 992.7 +17.2 +17.1
СВ 4.3
{6.3}
+16.5 -6.8 20 +16 +16 1016.4 993.0 +16.8 +16.5
СВ 4.9
{7.0}
+16.0 -6.2 21 +15 +15 1016.5 993.1 +16.2 +16.0
СВ 4.6
{6.5}
+15.9 -5.9 22 +15 +15 1016.6 993.2 +16.0 +16.0
СВ 4.9
{7.2}
+16.1 -6.2 21 +15 +15 1016.6 993.2 +16.1 +15.9
СВ 4.7
{7.6}
+16.3 -6.0 21 +16 +16 1016.5 993.1 +16.3 +16.1
СВ 5.6
{7.9}
+16.7 -6.2 20 +16 +16 1016.5 993.1 +16.7 +16.6
СВ 5.9
{8.2}
+17.0 -5.9 20 +16 +16 1016.4 993.0 +17.0 +16.7
СВ 5.8
{8.5}
+17.3 -5.8 20 +17 +17 1016.3 992.9 +17.3 +17.0
СВ 7.0
{9.6}
+17.5 -5.9 20 +17 +17 1016.3 992.9 +17.5 +17.3
Местоположение метеостанции Машикудук (Навоийская область, Узбекистан): широта 41.06 долгота 65.24 высота над уровнем моря 0 м.
В архиве по умолчанию представлена погода в Машикудуке за последние 1-2 суток. Обновление информации о фактической погоде в базе происходит ежечасно! Архивные данные за месяц целиком и за предыдущие месяцы Вы можете получить, выбрав интересующий диапазон дат из раскрывающегося списка и нажав кнопку "Ввод!".
*Определитесь, кто Вы:
Внимание! Время в таблицах - местное (без учета летнего времени). Для получения всемирного времени необходимо вычесть поправку, которая равна 5 ч.
Смотрите также архив погоды на ближайших метеорологических станциях:
Партнеры нашего сайта:      
Пояснения к столбцам:
  • Ветер - указаны скорость ветра в м/с - средняя за 10 мин, порывы в срок и между сроками (в фигурных скобках) и направление, откуда дует ветер: С - северный,
  • СВ - северо-восточный, В - восточный, ЮВ - юго-восточный, Ю - южный, ЮЗ - юго-западный, З - западный, СЗ - северо-западный.
  • Видимость - горизонтальная дальность видимости в метрах или километрах. При видимости от 1 до 10 км при отсутствии осадков обычно наблюдается дымка, при ухудшении видимости до 1 км и менее - туман. В сухую погоду видимость может ухудшаться дымом, пылью или мглою.
  • Явления - указаны атмосферные явления, наблюдавшиеся в срок или в последний час перед сроком.
  • Солнечная радиация - мощность потока солнечного излучения на поверхность земли и предметов в Вт/м2.
  • T - Температура воздуха - температура, измеренная на высоте 2 м над землей.
  • Td - Температура точки росы - температура, при понижении до которой содержащийся в воздухе водяной пар достигнет насыщения.
  • f - Относительная влажность воздуха - влажноcть воздуха, измеренная на высоте 2 м над землей.
  • Te - Эффективная температура - температура, которую ощущает одетый по сезону человек в тени. Характеристика душности погоды. При расчете учитывается влияние влажности воздуха и скорости ветра на теплоощущения человека.
  • Tes - Эффективная температура на солнце - температура, которую ощущает человек, с поправкой на солнечный нагрев. Характеристика знойности погоды. Зависит от высоты солнца над горизонтом, облачности и скорости ветра. Ночью, в пасмурную погоду, а также при ветре 12 м/с и более поправка равна нулю.
  • P - Атмосферное давление - приведенное к уровню моря атмосферное давление.
  • Po - Атмосферное давление - измеренное на уровне метеостанции атмосферное давление.
  • Tmin - Минимальная температура - минимум температуры воздуха на высоте 2 м над землей.
  • Tmax - Максимальная температура - максимум температуры воздуха на высоте 2 м над землей.
  • R - Количество осадков - Количество выпавших осадков за период времени, мм. При наведении курсора мыши на число - период времени, за который выпало указанное количество осадков.